H1 CPF 2 NER 2025 5 11 9 131 01 glonass147 H2 2311401 9147 57517 2025 5 11 0 0 0 2025 5 14 23 45 0 900 1 1 0 0 0 1 H9 10 0 60806 0.00000 0 -10887873.575 4877817.195 -22518450.571 10 0 60806 900.00000 0 -13143579.919 3342216.428 -21574214.900 10 0 60806 1800.00000 0 -15385247.159 2051393.242 -20209748.623 10 0 60806 2700.00000 0 -17545716.973 1018706.810 -18451590.841 10 0 60806 3600.00000 0 -19558155.029 244790.766 -16333974.089 10 0 60806 4500.00000 0 -21358734.347 -282241.259 -13898154.337 10 0 60806 5400.00000 0 -22889209.949 -586052.770 -11191601.098 10 0 60806 6300.00000 0 -24099276.126 -700836.895 -8267063.779 10 0 60806 7200.00000 0 -24948606.707 -669618.502 -5181533.246 10 0 60806 8100.00000 0 -25408492.212 -542179.543 -1995119.755 10 0 60806 9000.00000 0 -25463004.989 -372697.331 1230129.673 10 0 60806 9900.00000 0 -25109643.603 -217197.582 4431450.108 10 0 60806 10800.00000 0 -24359430.123 -130931.829 7546588.834 10 0 60806 11700.00000 0 -23236457.263 -165791.668 10515021.727 10 0 60806 12600.00000 0 -21776905.751 -367870.332 13279131.442 10 0 60806 13500.00000 0 -20027574.586 -775275.358 15785324.151 10 0 60806 14400.00000 0 -18043987.168 -1416284.951 17985063.272 10 0 60806 15300.00000 0 -15888153.700 -2307925.718 19835800.664 10 0 60806 16200.00000 0 -13626084.128 -3455031.309 21301788.220 10 0 60806 17100.00000 0 -11325155.580 -4849821.126 22354755.496 10 0 60806 18000.00000 0 -9051443.697 -6472016.424 22974441.692 10 0 60806 18900.00000 0 -6867128.019 -8289488.816 23148973.261 10 0 60806 19800.00000 0 -4828077.871 -10259414.247 22875081.242 10 0 60806 20700.00000 0 -2981717.393 -12329884.810 22158155.221 10 0 60806 21600.00000 0 -1365256.417 -14441912.090 21012133.675 10 0 60806 22500.00000 0 -4358.726 -16531739.826 19459233.098 10 0 60806 23400.00000 0 1087698.749 -18533370.946 17529521.037 10 0 60806 24300.00000 0 1910342.424 -20381205.264 15260340.762 10 0 60806 25200.00000 0 2475482.297 -22012679.391 12695597.805 10 0 60806 26100.00000 0 2806765.970 -23370800.001 9884921.110 10 0 60806 27000.00000 0 2938338.151 -24406465.695 6882713.822 10 0 60806 27900.00000 0 2913157.820 -25080480.986 3747110.925 10 0 60806 28800.00000 0 2780943.679 -25365178.255 538862.908 10 0 60806 29700.00000 0 2595834.156 -25245579.426 -2679833.747 10 0 60806 30600.00000 0 2413860.415 -24720047.945 -5846537.175 10 0 60806 31500.00000 0 2290338.989 -23800402.651 -8899768.779 10 0 60806 32400.00000 0 2277294.334 -22511487.497 -11780206.578 10 0 60806 33300.00000 0 2421020.732 -20890213.766 -14431839.875 10 0 60806 34200.00000 0 2759887.469 -18984113.625 -16803062.502 10 0 60806 35100.00000 0 3322481.210 -16849464.375 -18847682.907 10 0 60806 36000.00000 0 4126165.588 -14549060.918 -20525831.005 10 0 60806 36900.00000 0 5176120.598 -12149728.903 -21804743.499 10 0 60806 37800.00000 0 6464904.289 -9719682.019 -22659411.872 10 0 60806 38700.00000 0 7972557.262 -7325833.590 -23073079.794 10 0 60806 39600.00000 0 9667247.588 -5031174.754 -23037579.621 10 0 60806 40500.00000 0 11506430.826 -2892328.770 -22553500.810 10 0 60806 41400.00000 0 13438477.962 -957383.743 -21630186.275 10 0 60806 42300.00000 0 15404704.004 735905.583 -20285556.179 10 0 60806 43200.00000 0 17341712.774 2161471.811 -18545762.030 10 0 60806 44100.00000 0 19183959.721 3305788.294 -16444677.423 10 0 60806 45000.00000 0 20866424.904 4168186.739 -14023235.186 10 0 60806 45900.00000 0 22327283.396 4760626.661 -11328623.917 10 0 60806 46800.00000 0 23510460.119 5106927.684 -8413359.942 10 0 60806 47700.00000 0 24367960.914 5241498.677 -5334253.499 10 0 60806 48600.00000 0 24861881.068 5207619.233 -2151290.253 10 0 60806 49500.00000 0 24966006.321 5055348.160 1073548.911 10 0 60806 50400.00000 0 24666938.836 4839149.471 4277505.521 10 0 60806 51300.00000 0 23964701.012 4615338.270 7398273.623 10 0 60806 52200.00000 0 22872792.356 4439456.311 10375217.384 10 0 60806 53100.00000 0 21417698.008 4363689.563 13150551.668 10 0 60806 54000.00000 0 19637870.649 4434437.870 15670462.282 10 0 60806 54900.00000 0 17582229.659 4690139.763 17886144.224 10 0 60806 55800.00000 0 15308241.383 5159444.190 19754738.295 10 0 60806 56700.00000 0 12879661.465 5859805.854 21240148.886 10 0 60806 57600.00000 0 10364033.702 6796562.691 22313728.422 10 0 60806 58500.00000 0 7830049.437 7962533.666 22954816.655 10 0 60806 59400.00000 0 5344876.518 9338153.285 23151125.934 10 0 60806 60300.00000 0 2971567.561 10892137.024 22898966.419 10 0 60806 61200.00000 0 766653.479 12582649.962 22203308.009 10 0 60806 62100.00000 0 -1221979.799 14358930.394 21077678.603 10 0 60806 63000.00000 0 -2956845.325 16163301.530 19543900.983 10 0 60806 63900.00000 0 -4412168.947 17933488.545 17631673.308 10 0 60806 64800.00000 0 -5574710.146 19605145.656 15378000.810 10 0 60806 65700.00000 0 -6444057.184 21114489.157 12826488.804 10 0 60806 66600.00000 0 -7032385.381 22400927.673 10026509.624 10 0 60806 67500.00000 0 -7363689.338 23409580.714 7032258.409 10 0 60806 68400.00000 0 -7472521.637 24093580.799 3901714.823 10 0 60806 69300.00000 0 -7402291.029 24416062.896 695529.810 10 0 60806 70200.00000 0 -7203191.527 24351757.552 -2524141.876 10 0 60806 71100.00000 0 -6929849.445 23888120.142 -5694841.352 10 0 60806 72000.00000 0 -6638787.471 23025947.760 -8755014.464 10 0 60806 72900.00000 0 -6385812.828 21779456.439 -11645206.465 10 0 60806 73800.00000 0 -6223440.095 20175813.892 -14309219.139 10 0 60806 74700.00000 0 -6198458.155 18254145.717 -16695207.581 10 0 60806 75600.00000 0 -6349744.914 16064055.148 -18756694.830 10 0 60806 76500.00000 0 -6706423.288 13663716.905 -20453484.190 10 0 60806 77400.00000 0 -7286437.756 11117623.720 -21752450.844 10 0 60806 78300.00000 0 -8095613.191 8494078.846 -22628196.836 10 0 60806 79200.00000 0 -9127237.422 5862538.640 -23063556.020 10 0 60806 80100.00000 0 -10362186.884 3290915.836 -23049938.529 10 0 60806 81000.00000 0 -11769591.751 842955.883 -22587507.406 10 0 60806 81900.00000 0 -13308014.030 -1424204.174 -21685183.323 10 0 60806 82800.00000 0 -14927090.190 -3462192.309 -20360476.658 10 0 60806 83700.00000 0 -16569570.026 -5233183.591 -18639149.696 10 0 60806 84600.00000 0 -18173666.326 -6711233.401 -16554715.106 10 0 60806 85500.00000 0 -19675616.406 -7883106.389 -14147780.290 10 0 60807 0.00000 0 -21012347.134 -8748567.159 -11465250.683 10 0 60807 900.00000 0 -22124131.200 -9320122.003 -8559406.403 10 0 60807 1800.00000 0 -22957120.097 -9622222.976 -5486874.588 10 0 60807 2700.00000 0 -23465648.573 -9689971.189 -2307513.589 10 0 60807 3600.00000 0 -23614210.855 -9567374.864 916764.550 10 0 60807 4500.00000 0 -23379025.610 -9305238.381 4123210.468 10 0 60807 5400.00000 0 -22749123.437 -8958773.547 7249467.579 10 0 60807 6300.00000 0 -21726911.307 -8585035.990 10234790.861 10 0 60807 7200.00000 0 -20328190.788 -8240296.630 13021229.778 10 0 60807 8100.00000 0 -18581630.078 -7977460.443 15554751.983 10 0 60807 9000.00000 0 -16527712.914 -7843642.125 17786286.020 10 0 60807 9900.00000 0 -14217209.259 -7878001.082 19672663.284 10 0 60807 10800.00000 0 -11709232.364 -8109926.639 21177441.959 10 0 60807 11700.00000 0 -9068963.569 -8557649.196 22271598.227 10 0 60807 12600.00000 0 -6365139.503 -9227334.929 22934072.876 10 0 60807 13500.00000 0 -3667405.524 -10112701.213 23152164.237 10 0 60807 14400.00000 0 -1043644.195 -11195168.308 22921761.307 10 0 60807 15300.00000 0 1442611.877 -12444540.638 22247413.685 10 0 60807 16200.00000 0 3734577.412 -13820189.273 21142237.801 10 0 60807 17100.00000 0 5784324.619 -15272686.644 19627661.573 10 0 60807 18000.00000 0 7554520.588 -16745826.040 17733012.376 10 0 60807 18900.00000 0 9019721.665 -18178942.563 15494955.771 10 0 60807 19800.00000 0 10167172.590 -19509439.767 12956794.982 10 0 60807 20700.00000 0 10997078.385 -20675417.472 10167643.623 10 0 60807 21600.00000 0 11522338.546 -21618291.807 7181486.493 10 0 60807 22500.00000 0 11767755.205 -22285298.406 4056145.409 10 0 60807 23400.00000 0 11768748.613 -22631774.137 852169.120 10 0 60807 24300.00000 0 11569633.867 -22623121.436 -2368332.079 10 0 60807 25200.00000 0 11221531.178 -22236372.145 -5542885.019 10 0 60807 26100.00000 0 10779997.491 -21461284.094 -8609862.683 10 0 60807 27000.00000 0 10302479.218 -20300922.902 -11509680.163 10 0 60807 27900.00000 0 9845693.620 -18771702.864 -14185954.214 10 0 60807 28800.00000 0 9463049.690 -16902883.333 -16586603.511 10 0 60807 29700.00000 0 9202218.010 -14735539.865 -18664867.791 10 0 60807 30600.00000 0 9102953.000 -12321051.421 -20380225.584 10 0 60807 31500.00000 0 9195260.595 -9719165.395 -21699192.067 10 0 60807 32400.00000 0 9497989.919 -6995720.040 -22595980.971 10 0 60807 33300.00000 0 10017909.801 -4220118.407 -23053017.056 10 0 60807 34200.00000 0 10749310.511 -1462658.560 -23061288.518 10 0 60807 35100.00000 0 11674148.932 1208168.989 -22620531.873 10 0 60807 36000.00000 0 12762732.347 3728304.094 -21739245.022 10 0 60807 36900.00000 0 13974913.066 6040550.664 -20434527.670 10 0 60807 37800.00000 0 15261744.305 8096719.643 -18731751.640 10 0 60807 38700.00000 0 16567527.917 9859391.844 -16664067.092 10 0 60807 39600.00000 0 17832167.602 11303227.170 -14271754.083 10 0 60807 40500.00000 0 18993727.990 12415765.891 -11601432.133 10 0 60807 41400.00000 0 19991090.923 13197689.289 -8705143.556 10 0 60807 42300.00000 0 20766595.894 13662529.942 -5639329.081 10 0 60807 43200.00000 0 21268552.207 13835845.485 -2463716.678 10 0 60807 44100.00000 0 21453515.837 13753892.579 759853.643 10 0 60807 45000.00000 0 21288234.122 13461859.139 3968644.862 10 0 60807 45900.00000 0 20751175.750 13011731.606 7100252.902 10 0 60807 46800.00000 0 19833581.397 12459889.399 10093826.515 10 0 60807 47700.00000 0 18539990.941 11864529.921 12891252.485 10 0 60807 48600.00000 0 16888225.569 11283034.206 15438282.732 10 0 60807 49500.00000 0 14908826.151 10769385.266 17685581.441 10 0 60807 50400.00000 0 12643972.113 10371748.260 19589672.374 10 0 60807 51300.00000 0 10145926.596 10130314.256 21113768.928 10 0 60807 52200.00000 0 7475073.097 10075497.592 22228472.128 10 0 60807 53100.00000 0 4697625.325 10226561.703 22912324.508 10 0 60807 54000.00000 0 1883105.023 10590729.979 23152210.706 10 0 60807 54900.00000 0 -898308.540 11162817.972 22943598.453 10 0 60807 55800.00000 0 -3578448.778 11925401.538 22290616.496 10 0 60807 56700.00000 0 -6093742.783 12849513.466 21205968.755 10 0 60807 57600.00000 0 -8387598.037 13895839.398 19710686.779 10 0 60807 58500.00000 0 -10412497.876 15016363.391 17833725.209 10 0 60807 59400.00000 0 -12131720.624 16156394.993 15611407.596 10 0 60807 60300.00000 0 -13520612.694 17256893.956 13086732.431 10 0 60807 61200.00000 0 -14567364.012 18256996.258 10308551.752 10 0 60807 62100.00000 0 -15273254.441 19096636.565 7330637.040 10 0 60807 63000.00000 0 -15652361.550 19719157.896 4210649.247 10 0 60807 63900.00000 0 -15730742.193 20073799.333 1009031.917 10 0 60807 64800.00000 0 -15545122.241 20117957.271 -2212152.053 10 0 60807 65700.00000 0 -15141149.293 19819124.670 -5390418.064 10 0 60807 66600.00000 0 -14571281.608 19156425.778 -8464068.937 10 0 60807 67500.00000 0 -13892401.928 18121680.427 -11373392.125 10 0 60807 68400.00000 0 -13163256.626 16719951.415 -14061821.630 10 0 60807 69300.00000 0 -12441828.267 14969550.019 -16477041.705 10 0 60807 70200.00000 0 -11782752.664 12901497.323 -18572010.460 10 0 60807 71100.00000 0 -11234889.935 10558461.880 -20305882.978 10 0 60807 72000.00000 0 -10839152.737 7993216.283 -21644815.407 10 0 60807 72900.00000 0 -10626684.200 5266675.508 -22562633.795 10 0 60807 73800.00000 0 -10617463.432 2445597.586 -23041354.077 10 0 60807 74700.00000 0 -10819398.513 -399958.438 -23071542.430 10 0 60807 75600.00000 0 -11227946.301 -3199311.924 -22652508.373 10 0 60807 76500.00000 0 -11826276.103 -5883866.125 -21792326.193 10 0 60807 77400.00000 0 -12585971.141 -8389727.044 -20507683.681 10 0 60807 78300.00000 0 -13468238.814 -10660126.428 -18823560.579 10 0 60807 79200.00000 0 -14425578.990 -12647547.748 -16772742.579 10 0 60807 80100.00000 0 -15403839.832 -14315466.328 -14395180.144 10 0 60807 81000.00000 0 -16344573.932 -15639631.099 -11737204.671 10 0 60807 81900.00000 0 -17187594.498 -16608834.834 -8850617.588 10 0 60807 82800.00000 0 -17873622.566 -17225141.433 -5791670.778 10 0 60807 83700.00000 0 -18346912.223 -17503562.052 -2619959.152 10 0 60807 84600.00000 0 -18557741.751 -17471195.364 602751.978 10 0 60807 85500.00000 0 -18464664.372 -17165870.130 3813740.550 10 0 60808 0.00000 0 -18036422.794 -16634349.485 6950557.293 10 0 60808 900.00000 0 -17253445.980 -15930174.463 9952247.792 10 0 60808 1800.00000 0 -16108865.526 -15111240.435 12760538.254 10 0 60808 2700.00000 0 -14609008.266 -14237209.306 15320967.085 10 0 60808 3600.00000 0 -12773345.271 -13366868.334 17583936.120 10 0 60808 4500.00000 0 -10633899.714 -12555547.137 19505663.202 10 0 60808 5400.00000 0 -8234138.855 -11852701.586 21049018.326 10 0 60808 6300.00000 0 -5627396.694 -11299765.592 22184228.366 10 0 60808 7200.00000 0 -2874893.027 -10928359.991 22889438.230 10 0 60808 8100.00000 0 -43430.897 -10758932.448 23151119.100 10 0 60808 9000.00000 0 2797132.757 -10799884.017 22964317.337 10 0 60808 9900.00000 0 5576539.569 -11047217.743 22332740.395 10 0 60808 10800.00000 0 8226796.939 -11484723.042 21268678.968 10 0 60808 11700.00000 0 10684751.266 -12084687.548 19792767.247 10 0 60808 12600.00000 0 12894462.442 -12809106.497 17933585.905 10 0 60808 13500.00000 0 14809282.972 -13611339.228 15727114.985 10 0 60808 14400.00000 0 16393557.096 -14438144.019 13216046.473 10 0 60808 15300.00000 0 17623870.618 -15232006.745 10448968.771 10 0 60808 16200.00000 0 18489800.425 -15933666.500 7479437.676 10 0 60808 17100.00000 0 18994133.090 -16484732.925 4364950.641 10 0 60808 18000.00000 0 19152543.696 -16830285.709 1165843.150 10 0 60808 18900.00000 0 18992748.315 -16921347.111 -2055872.300 10 0 60808 19800.00000 0 18553165.476 -16717123.150 -5237702.726 10 0 60808 20700.00000 0 17881142.475 -16186918.341 -8317883.788 10 0 60808 21600.00000 0 17030820.759 -15311642.128 -11236578.173 10 0 60808 22500.00000 0 16060729.918 -14084841.984 -13937039.815 10 0 60808 23400.00000 0 15031211.452 -12513217.743 -16366720.985 10 0 60808 24300.00000 0 14001780.892 -10616593.395 -18478300.332 10 0 60808 25200.00000 0 13028539.624 -8427345.258 -20230611.355 10 0 60808 26100.00000 0 12161745.924 -5989308.348 -21589452.678 10 0 60808 27000.00000 0 11443648.124 -3356204.688 -22528263.793 10 0 60808 27900.00000 0 10906671.904 -589657.532 -23028652.528 10 0 60808 28800.00000 0 10572038.875 2243126.933 -23080763.325 10 0 60808 29700.00000 0 10448875.419 5071914.693 -22683478.574 10 0 60808 30600.00000 0 10533850.051 7826129.909 -21844448.397 10 0 60808 31500.00000 0 10811355.180 10437560.103 -20579947.726 10 0 60808 32400.00000 0 11254225.943 12842967.734 -18914562.906 10 0 60808 33300.00000 0 11824965.905 14986499.121 -16880713.489 10 0 60808 34200.00000 0 12477427.656 16821789.912 -14518018.331 10 0 60808 35100.00000 0 13158876.774 18313679.060 -11872518.366 10 0 60808 36000.00000 0 13812351.088 19439459.735 -8995771.479 10 0 60808 36900.00000 0 14379214.354 20189615.264 -5943837.793 10 0 60808 37800.00000 0 14801795.066 20568010.097 -2776176.027 10 0 60808 38700.00000 0 15025997.463 20591529.148 445526.454 10 0 60808 39600.00000 0 15003773.010 20289182.298 3658565.825 10 0 60808 40500.00000 0 14695346.832 19700713.773 6800451.361 10 0 60808 41400.00000 0 14071104.241 18874776.972 9810127.368 10 0 60808 42300.00000 0 13113057.284 17866753.646 12629162.796 10 0 60808 43200.00000 0 11815829.395 16736311.026 15202885.003 10 0 60808 44100.00000 0 10187116.828 15544801.063 17481435.588 10 0 60808 45000.00000 0 8247607.825 14352611.998 19420728.265 10 0 60808 45900.00000 0 6030363.250 13216583.785 20983291.055 10 0 60808 46800.00000 0 3579684.769 12187595.472 22138977.770 10 0 60808 47700.00000 0 949517.894 11308424.838 22865536.396 10 0 60808 48600.00000 0 -1798544.021 10611968.670 23149024.985 10 0 60808 49500.00000 0 -4597572.514 10119896.620 22984068.417 10 0 60808 50400.00000 0 -7377838.590 9841793.462 22373952.300 10 0 60808 51300.00000 0 -10069465.439 9774824.153 21330553.071 10 0 60808 52200.00000 0 -12605091.049 9903934.626 19874106.059 10 0 60808 53100.00000 0 -14922432.096 10202579.165 18032815.992 10 0 60808 54000.00000 0 -16966644.597 10633943.620 15842317.030 10 0 60808 54900.00000 0 -18692384.972 11152613.349 13344991.937 10 0 60808 55800.00000 0 -20065487.201 11706616.373 10589162.523 10 0 60808 56700.00000 0 -21064187.302 12239756.591 7628165.815 10 0 60808 57600.00000 0 -21679844.721 12694139.729 4519332.631 10 0 60808 58500.00000 0 -21917130.749 13012786.257 1322887.290 10 0 60808 59400.00000 0 -21793676.017 13142221.610 -1899211.130 10 0 60808 60300.00000 0 -21339191.521 13034934.456 -5084464.159 10 0 60808 61200.00000 0 -20594099.546 12651598.913 -8171043.062 10 0 60808 62100.00000 0 -19607731.487 11962966.002 -11098988.336 10 0 60808 63000.00000 0 -18436167.790 10951343.222 -13811376.207 10 0 60808 63900.00000 0 -17139810.500 9611598.076 -16255429.059 10 0 60808 64800.00000 0 -15780790.311 7951641.217 -18383547.840 10 0 60808 65700.00000 0 -14420317.171 5992366.600 -20154245.848 10 0 60808 66600.00000 0 -13116086.087 3767048.829 -21532965.163 10 0 60808 67500.00000 0 -11919847.565 1320220.723 -22492759.266 10 0 60808 68400.00000 0 -10875245.321 -1293923.970 -23014827.988 10 0 60808 69300.00000 0 -10016012.745 -4013537.617 -23088893.733 10 0 60808 70200.00000 0 -9364604.502 -6771453.008 -22713411.036 10 0 60808 71100.00000 0 -8931321.301 -9497748.462 -21895604.733 10 0 60808 72000.00000 0 -8713965.024 -12122437.168 -20651335.410 10 0 60808 72900.00000 0 -8698038.885 -14578168.723 -19004794.188 10 0 60808 73800.00000 0 -8857484.065 -16802830.059 -16988032.366 10 0 60808 74700.00000 0 -9155921.374 -18741936.774 -14640334.856 10 0 60808 75600.00000 0 -9548344.818 -20350714.692 -12007449.638 10 0 60808 76500.00000 0 -9983194.495 -21595784.380 -9140688.495 10 0 60808 77400.00000 0 -10404719.961 -22456378.116 -6095917.217 10 0 60808 78300.00000 0 -10755532.595 -22925038.757 -2932455.802 10 0 60808 79200.00000 0 -10979237.497 -23007772.034 288088.801 10 0 60808 80100.00000 0 -11023032.023 -22723647.123 3503033.385 10 0 60808 81000.00000 0 -10840159.718 -22103863.967 6649847.809 10 0 60808 81900.00000 0 -10392114.867 -21190328.427 9667377.885 10 0 60808 82800.00000 0 -9650503.768 -20033797.127 12497037.168 10 0 60808 83700.00000 0 -8598483.874 -18691671.856 15083943.963 10 0 60808 84600.00000 0 -7231720.079 -17225537.715 17377981.478 10 0 60808 85500.00000 0 -5558818.107 -15698549.483 19334760.903 10 0 60809 0.00000 0 -3601217.281 -14172776.478 20916469.517 10 0 60809 900.00000 0 -1392546.242 -12706616.231 22092589.382 10 0 60809 1800.00000 0 1022528.699 -11352386.615 22840472.127 10 0 60809 2700.00000 0 3589918.280 -10154193.170 23145763.058 10 0 60809 3600.00000 0 6248118.910 -9146161.241 23002665.653 10 0 60809 4500.00000 0 8930533.622 -8351104.209 22414043.462 10 0 60809 5400.00000 0 11568010.166 -7779681.825 21391358.183 10 0 60809 6300.00000 0 14091492.467 -7430082.241 19954445.548 10 0 60809 7200.00000 0 16434677.155 -7288239.782 18131133.371 10 0 60809 8100.00000 0 18536566.652 -7328578.544 15956708.698 10 0 60809 9000.00000 0 20343814.389 -7515250.264 13473243.566 10 0 60809 9900.00000 0 21812766.022 -7803814.608 10728791.382 10 0 60809 10800.00000 0 22911112.665 -8143291.621 7776468.271 10 0 60809 11700.00000 0 23619087.891 -8478500.608 4673435.963 10 0 60809 12600.00000 0 23930158.705 -8752587.461 1479804.870 10 0 60809 13500.00000 0 23851181.495 -8909634.397 -1742522.315 10 0 60809 14400.00000 0 23402015.967 -8897242.116 -4931044.735 10 0 60809 15300.00000 0 22614612.639 -8668975.214 -8023872.359 10 0 60809 16200.00000 0 21531611.418 -8186566.906 -10960926.525 10 0 60809 17100.00000 0 20204509.387 -7421788.926 -13685108.588 10 0 60809 18000.00000 0 18691474.112 -6357906.113 -16143413.647 10 0 60809 18900.00000 0 17054893.854 -4990652.466 -18287967.265 10 0 60809 19800.00000 0 15358767.269 -3328685.381 -20076964.558 10 0 60809 20700.00000 0 13666042.179 -1393496.607 -21475492.744 10 0 60809 21600.00000 0 12036015.221 781218.643 -22456220.646 10 0 60809 22500.00000 0 10521901.777 3150710.231 -22999941.088 10 0 60809 23400.00000 0 9168678.532 5660793.133 -23095955.026 10 0 60809 24300.00000 0 8011289.562 8249872.821 -22742289.334 10 0 60809 25200.00000 0 7073291.562 10851292.585 -21945743.337 10 0 60809 26100.00000 0 6365995.335 13395905.468 -20721762.627 10 0 60809 27000.00000 0 5888139.586 15814763.747 -19094142.030 10 0 60809 27900.00000 0 5626110.520 18041813.601 -17094563.113 10 0 60809 28800.00000 0 5554697.441 20016482.031 -14761974.965 10 0 60809 29700.00000 0 5638351.649 21686047.392 -12141830.346 10 0 60809 30600.00000 0 5832894.356 23007693.939 -9285192.313 10 0 60809 31500.00000 0 6087600.055 23950163.937 -6247729.381 10 0 60809 32400.00000 0 6347565.628 24494938.137 -3088619.637 10 0 60809 33300.00000 0 6556263.272 24636895.420 130613.739 10 0 60809 34200.00000 0 6658167.499 24384424.729 3347311.590 10 0 60809 35100.00000 0 6601343.501 23758985.811 6498907.732 10 0 60809 36000.00000 0 6339886.074 22794138.773 9524152.725 10 0 60809 36900.00000 0 5836105.051 21534084.960 12364307.720 10 0 60809 37800.00000 0 5062364.342 20031782.204 14964284.687 10 0 60809 38700.00000 0 4002496.785 18346715.104 17273710.816 10 0 60809 39600.00000 0 2652735.287 16542415.094 19247896.805 10 0 60809 40500.00000 0 1022121.317 14683834.879 20848691.097 10 0 60809 41400.00000 0 -867626.120 12834687.242 22045204.735 10 0 60809 42300.00000 0 -2982775.426 11054858.983 22814394.212 10 0 60809 43200.00000 0 -5278753.557 9398006.916 23141492.589 10 0 60809 44100.00000 0 -7701774.994 7909434.716 23020282.004 10 0 60809 45000.00000 0 -10190861.439 6624337.351 22453203.540 10 0 60809 45900.00000 0 -12680169.403 5566484.358 21451303.263 10 0 60809 46800.00000 0 -15101530.373 4747395.000 20034015.905 10 0 60809 47700.00000 0 -17387099.634 4166038.078 18228790.469 10 0 60809 48600.00000 0 -19472005.349 3809067.647 16070564.527 10 0 60809 49500.00000 0 -21296889.382 3651583.877 13601096.640 10 0 60809 50400.00000 0 -22810235.488 3658386.788 10868168.751 10 0 60809 51300.00000 0 -23970388.942 3785670.184 7924672.812 10 0 60809 52200.00000 0 -24747184.025 3983084.852 4827598.093 10 0 60809 53100.00000 0 -25123111.603 4196084.588 1636937.714 10 0 60809 54000.00000 0 -25093977.782 4368456.582 -1585465.341 10 0 60809 54900.00000 0 -24669025.515 4444929.650 -4777111.029 10 0 60809 55800.00000 0 -23870513.282 4373750.169 -7876051.084 10 0 60809 56700.00000 0 -22732767.527 4109116.505 -10822090.540 10 0 60809 57600.00000 0 -21300747.654 3613368.293 -13557958.518 10 0 60809 58500.00000 0 -19628182.846 2858836.851 -16030425.167 10 0 60809 59400.00000 0 -17775358.136 1829277.019 -18191342.657 10 0 60809 60300.00000 0 -15806641.995 520818.078 -19998589.466 10 0 60809 61200.00000 0 -13787858.767 -1057608.496 -21416899.016 10 0 60809 62100.00000 0 -11783615.933 -2884384.688 -22418555.993 10 0 60809 63000.00000 0 -9854698.212 -4925862.456 -22983946.186 10 0 60809 63900.00000 0 -8055637.822 -7137535.616 -23101948.553 10 0 60809 64800.00000 0 -6432562.886 -9465679.835 -22770161.243 10 0 60809 65700.00000 0 -5021414.314 -11849393.508 -21994956.568 10 0 60809 66600.00000 0 -3846606.012 -14222955.129 -20791363.224 10 0 60809 67500.00000 0 -2920184.539 -16518399.096 -19182777.531 10 0 60809 68400.00000 0 -2241523.170 -18668202.329 -17200508.853 10 0 60809 69300.00000 0 -1797562.648 -20607969.031 -14883167.813 10 0 60809 70200.00000 0 -1563587.568 -22279000.680 -12275909.211 10 0 60809 71100.00000 0 -1504504.422 -23630643.002 -9429544.618 10 0 60809 72000.00000 0 -1576565.887 -24622310.915 -6399542.555 10 0 60809 72900.00000 0 -1729466.762 -25225106.112 -3244936.575 10 0 60809 73800.00000 0 -1908721.056 -25422959.292 -27163.593 10 0 60809 74700.00000 0 -2058217.795 -25213249.364 3191143.628 10 0 60809 75600.00000 0 -2122845.632 -24606874.385 6347385.068 10 0 60809 76500.00000 0 -2051073.650 -23627772.332 9380218.092 10 0 60809 77400.00000 0 -1797378.042 -22311913.296 12230753.355 10 0 60809 78300.00000 0 -1324411.295 -20705806.919 14843698.226 10 0 60809 79200.00000 0 -604821.924 -18864589.177 17168425.426 10 0 60809 80100.00000 0 377352.010 -16849769.937 19159946.473 10 0 60809 81000.00000 0 1625774.026 -14726736.401 20779771.904 10 0 60809 81900.00000 0 3131422.887 -12562117.083 21996642.794 10 0 60809 82800.00000 0 4872744.680 -10421116.125 22787120.810 10 0 60809 83700.00000 0 6816336.863 -8364928.219 23136026.941 10 0 60809 84600.00000 0 8918135.887 -6448340.471 23036721.888 10 0 60809 85500.00000 0 11125059.346 -4717619.276 22491223.928 99